Simultaneous Nadir Overpasses (SNOs) Predictions

Prediction of SNOs between GOES-16 and TERRA Satellite Orbit:

Table of predicted SNOs for the next 14.0 days since TLE Epoch: 9/5/2025
Index Date Time (GOES-16) GOES-16 Lat,Lon TERRA Lat,Lon Distance(km) Time Diff (sec)
1 09/06/2025 04:31:35 -0.05,-104.65 -0.89,-108.59 449.02 80
2 09/08/2025 04:09:37 -0.04,-104.64 0.08,-103.95 78.70 80
3 09/08/2025 16:31:42 0.06,-104.69 0.90,-108.67 453.03 80
4 09/10/2025 16:09:44 0.05,-104.69 -0.10,-104.03 74.90 80
5 09/11/2025 04:31:58 -0.06,-104.64 -0.93,-108.79 471.33 80
6 09/13/2025 04:09:59 -0.06,-104.63 0.04,-104.13 56.29 80
7 09/13/2025 16:32:03 0.07,-104.67 0.94,-108.86 475.75 80
8 09/15/2025 16:10:04 0.07,-104.66 -0.05,-104.21 51.94 80
9 09/16/2025 04:32:17 -0.08,-104.62 -1.01,-108.96 494.04 80
10 09/18/2025 04:10:18 -0.08,-104.61 0.01,-104.32 34.23 80
11 09/18/2025 16:32:22 0.09,-104.65 1.03,-109.03 498.02 80
